Lewiston, WA

12:43 AM PDT on September 23, 2017 (GMT -0700)
Lewiston-Nez Perce County

Weather History for KLWS - September, 2012

Change the Weather History Date:

Wednesday, September 26, 2012

  Actual Average Record
Temperature  
Mean Temperature 65 °F 60 °F  
Max Temperature 80 °F 73 °F 94 °F (1914)
Min Temperature 50 °F 47 °F 30 °F (1934)
Degree Days  
Heating Degree Days 0 6  
Month to date heating degree days 12 73  
Since 1 July heating degree days 12 88  
Cooling Degree Days 0 1  
Month to date cooling degree days 109 84  
Year to date cooling degree days 1022 801  
Growing Degree Days 14 (Base 50)    
Moisture  
Dew Point 43 °F    
Average Humidity 51    
Maximum Humidity 77    
Minimum Humidity 25    
Precipitation  
Precipitation 0.00 in 0.02 in 1.07 in (1905)
Month to date precipitation T 0.57  
Year to date precipitation 11.26 9.10  
Snow  
Snow 0.00 in 0.00 in 0.00 in (1998)
Month to date snowfall 0.0 0.0  
Since 1 July snowfall 0.0 0.0  
Since 1 September snowfall 0.0 0.0  
Snow Depth 0.00 in    
Sea Level Pressure  
Sea Level Pressure 30.03 in    
Wind  
Wind Speed 2 mph (SSW)    
Max Wind Speed 7 mph    
Max Gust Speed 13 mph    
Visibility 10 miles    
Events      
T = Trace of Precipitation, MM = Missing Value Source: NWS Daily Summary

Daily Weather History Graph

Daily Weather History Graph

Search for Another Location

Airport or City:

Trip Planner

Search our weather history database for the weather conditions in past years. The results will help you decide how hot, cold, wet, or windy it might be!

Date:

Astronomy

Sep. 26, 2012 Rise Set
Actual Time 6:40 AM PDT 6:36 PM PDT
Civil Twilight 6:10 AM PDT 7:06 PM PDT
Nautical Twilight 5:35 AM PDT 7:41 PM PDT
Astronomical Twilight 4:59 AM PDT 8:17 PM PDT
Moon 4:46 PM PDT (9/26) 3:01 AM PDT (9/26)
Length of Visible Light 12h 55m
Length of Day
11h 55m
Waxing Gibbous, 88% of the Moon is Illuminated
Sep 26
Waxing Gibbous
Sep 29
Full
Oct 8
Last Quarter
Oct 15
New
Oct 21
First Quarter

Hourly Weather History & Observations

Time (PDT) Temp. Dew Point Humidity Pressure Visibility Wind Dir Wind Speed Gust Speed Precip Events Conditions
12:56 AM 57.0 °F 45.0 °F 64% 30.01 in 10.0 mi SE 3.5 mph - N/A   Clear
1:56 AM 57.0 °F 45.0 °F 64% 30.01 in 10.0 mi Calm Calm - N/A   Clear
2:56 AM 55.0 °F 45.0 °F 69% 30.02 in 10.0 mi SSE 3.5 mph - N/A   Clear
3:56 AM 54.0 °F 45.0 °F 72% 30.02 in 10.0 mi Calm Calm - N/A   Clear
5:56 AM 53.1 °F 45.0 °F 74% 30.04 in 10.0 mi Calm Calm - N/A   Clear
6:56 AM 52.0 °F 44.1 °F 74% 30.06 in 10.0 mi Calm Calm - N/A   Clear
7:56 AM 54.0 °F 44.1 °F 69% 30.07 in 10.0 mi Calm Calm - N/A   Clear
8:56 AM 59.0 °F 46.0 °F 62% 30.08 in 10.0 mi Calm Calm - N/A   Clear
9:56 AM 62.6 °F 46.4 °F 55% 30.09 in 9.0 mi NNE 3.5 mph - N/A   Clear
10:56 AM 66.0 °F 46.9 °F 50% 30.07 in 10.0 mi Calm Calm - N/A   Clear
11:56 AM 70.0 °F 46.9 °F 44% 30.05 in 10.0 mi Variable 4.6 mph - N/A   Clear
12:56 PM 72.0 °F 46.0 °F 40% 30.04 in 10.0 mi Calm Calm - N/A   Clear
1:56 PM 75.9 °F 44.1 °F 32% 30.01 in 10.0 mi Calm Calm - N/A   Clear
2:56 PM 79.0 °F 39.9 °F 25% 30.00 in 10.0 mi Calm Calm - N/A   Clear
3:56 PM 80.1 °F 41.0 °F 25% 29.99 in 10.0 mi Variable 3.5 mph - N/A   Clear
4:56 PM 78.1 °F 39.0 °F 25% 29.98 in 10.0 mi Calm Calm - N/A   Clear
5:56 PM 75.9 °F 39.9 °F 27% 29.98 in 10.0 mi West 3.5 mph - N/A   Clear
6:56 PM 72.0 °F 39.9 °F 31% 29.98 in 10.0 mi WNW 5.8 mph - N/A   Clear
7:56 PM 71.1 °F 39.9 °F 32% 30.00 in 10.0 mi West 3.5 mph - N/A   Clear
8:56 PM 64.9 °F 37.9 °F 37% 30.01 in 10.0 mi South 4.6 mph - N/A   Clear
9:56 PM 64.0 °F 39.9 °F 41% 30.02 in 10.0 mi South 6.9 mph - N/A   Clear
10:05 PM 64.4 °F 39.2 °F 40% 30.03 in 10.0 mi South 6.9 mph 108.2 mph N/A   Squalls
10:56 PM 62.1 °F 39.9 °F 44% 30.03 in 10.0 mi SSW 5.8 mph - N/A   Clear
11:56 PM 60.8 °F 39.2 °F 45% 30.04 in 10.0 mi South 3.5 mph - N/A   Clear